Year,Month,Day,Hour,Minute,Value (Times are PST for temperature in C)
2016,01,28,04,20,9.70
2016,01,28,04,21,9.70
2016,01,28,04,22,9.70
2016,01,28,04,23,9.60
2016,01,28,04,24,9.60
2016,01,28,04,25,9.60
2016,01,28,04,26,9.60
2016,01,28,04,27,9.60
2016,01,28,04,28,9.60
2016,01,28,04,29,9.50
2016,01,28,04,30,9.50
2016,01,28,04,31,9.50
2016,01,28,04,32,9.50
2016,01,28,04,33,9.50
2016,01,28,04,34,9.50
2016,01,28,04,35,9.50
2016,01,28,04,36,9.40
2016,01,28,04,37,9.40
2016,01,28,04,38,9.40
2016,01,28,04,39,9.40
2016,01,28,04,40,9.40
2016,01,28,04,41,9.40
2016,01,28,04,42,9.40
2016,01,28,04,43,9.40
2016,01,28,04,44,9.50
2016,01,28,04,45,9.50
2016,01,28,04,46,9.50
2016,01,28,04,47,9.50
2016,01,28,04,48,9.50
2016,01,28,04,49,9.50
2016,01,28,04,50,9.60
2016,01,28,04,51,9.60
2016,01,28,04,52,9.60
2016,01,28,04,53,9.60
2016,01,28,04,54,9.60
2016,01,28,04,55,9.60
2016,01,28,04,56,9.60
2016,01,28,04,57,9.60
2016,01,28,04,58,9.60
2016,01,28,04,59,9.60
2016,01,28,05,00,9.60
2016,01,28,05,01,9.60
2016,01,28,05,02,9.60
2016,01,28,05,03,9.60
2016,01,28,05,04,9.60
2016,01,28,05,05,9.60
2016,01,28,05,06,9.60
2016,01,28,05,07,9.60
2016,01,28,05,08,9.60
2016,01,28,05,09,9.70
2016,01,28,05,10,9.70
2016,01,28,05,11,9.70
2016,01,28,05,12,9.70
2016,01,28,05,13,9.70
2016,01,28,05,14,9.70
2016,01,28,05,15,9.70
2016,01,28,05,16,9.70
2016,01,28,05,17,9.70
2016,01,28,05,18,9.80
2016,01,28,05,19,9.80
2016,01,28,05,20,9.80
2016,01,28,05,21,9.80
2016,01,28,05,22,9.80
2016,01,28,05,23,9.80
2016,01,28,05,24,9.80
2016,01,28,05,25,9.80
2016,01,28,05,26,9.80
2016,01,28,05,27,9.80
2016,01,28,05,28,9.80
2016,01,28,05,29,9.80
2016,01,28,05,30,9.80
2016,01,28,05,31,9.80
2016,01,28,05,32,9.80
2016,01,28,05,33,9.80
2016,01,28,05,34,9.80
2016,01,28,05,35,9.80
2016,01,28,05,36,9.80
2016,01,28,05,37,9.80
2016,01,28,05,38,9.80
2016,01,28,05,39,9.80
2016,01,28,05,40,9.80
2016,01,28,05,41,9.80
2016,01,28,05,42,9.80
2016,01,28,05,43,9.80
2016,01,28,05,44,9.80
2016,01,28,05,45,9.80
2016,01,28,05,46,9.80
2016,01,28,05,47,9.80
2016,01,28,05,48,9.80
2016,01,28,05,49,9.80
2016,01,28,05,50,9.80
2016,01,28,05,51,9.80
2016,01,28,05,52,9.80
2016,01,28,05,53,9.80
2016,01,28,05,54,9.80
2016,01,28,05,55,9.80
2016,01,28,05,56,9.80
2016,01,28,05,57,9.80
2016,01,28,05,58,9.80
2016,01,28,05,59,9.80
2016,01,28,06,00,9.80
2016,01,28,06,01,9.80
2016,01,28,06,02,9.80
2016,01,28,06,03,9.80
2016,01,28,06,04,9.80
2016,01,28,06,05,9.80
2016,01,28,06,06,9.80
2016,01,28,06,07,9.80
2016,01,28,06,08,9.80
2016,01,28,06,09,9.80
2016,01,28,06,10,9.80
2016,01,28,06,11,9.80
2016,01,28,06,12,9.80
2016,01,28,06,13,9.80
2016,01,28,06,14,9.80
2016,01,28,06,15,9.80
2016,01,28,06,16,9.80
2016,01,28,06,17,9.70
2016,01,28,06,18,9.70
2016,01,28,06,19,9.70
2016,01,28,06,20,9.70
2016,01,28,06,21,9.70
2016,01,28,06,22,9.70
2016,01,28,06,23,9.70
2016,01,28,06,24,9.70
2016,01,28,06,25,9.70
2016,01,28,06,26,9.70
2016,01,28,06,27,9.70
2016,01,28,06,28,9.70
2016,01,28,06,29,9.70
2016,01,28,06,30,9.70
2016,01,28,06,31,9.70
2016,01,28,06,32,9.70
2016,01,28,06,33,9.70
2016,01,28,06,34,9.70
2016,01,28,06,35,9.60
2016,01,28,06,36,9.60
2016,01,28,06,37,9.60
2016,01,28,06,38,9.60
2016,01,28,06,39,9.60
2016,01,28,06,40,9.60
2016,01,28,06,41,9.60
2016,01,28,06,42,9.60
2016,01,28,06,43,9.60
2016,01,28,06,44,9.60
2016,01,28,06,45,9.60
2016,01,28,06,46,9.60
2016,01,28,06,47,9.60
2016,01,28,06,48,9.60
2016,01,28,06,49,9.60
2016,01,28,06,50,9.60
2016,01,28,06,51,9.50
2016,01,28,06,52,9.50
2016,01,28,06,53,9.50
2016,01,28,06,54,9.50
2016,01,28,06,55,9.50
2016,01,28,06,56,9.50
2016,01,28,06,57,9.50
2016,01,28,06,58,9.50
2016,01,28,06,59,9.50
2016,01,28,07,00,9.50
2016,01,28,07,01,9.50
2016,01,28,07,02,9.50
2016,01,28,07,03,9.50
2016,01,28,07,04,9.50
2016,01,28,07,05,9.50
2016,01,28,07,06,9.50
2016,01,28,07,07,9.50
2016,01,28,07,08,9.50
2016,01,28,07,09,9.50
2016,01,28,07,10,9.50
2016,01,28,07,11,9.50
2016,01,28,07,12,9.50
2016,01,28,07,13,9.50
2016,01,28,07,14,9.40
2016,01,28,07,15,9.40
2016,01,28,07,16,9.40
2016,01,28,07,17,9.40
2016,01,28,07,18,9.40
2016,01,28,07,19,9.40
2016,01,28,07,20,9.40
2016,01,28,07,21,9.40
2016,01,28,07,22,9.40
2016,01,28,07,23,9.40
2016,01,28,07,24,9.40
2016,01,28,07,25,9.40
2016,01,28,07,26,9.40
2016,01,28,07,27,9.40
2016,01,28,07,28,9.40
2016,01,28,07,29,9.40
2016,01,28,07,30,9.40
2016,01,28,07,31,9.40
2016,01,28,07,32,9.40
2016,01,28,07,33,9.40
2016,01,28,07,34,9.40
2016,01,28,07,35,9.40
2016,01,28,07,36,9.40
2016,01,28,07,37,9.40
2016,01,28,07,38,9.40
2016,01,28,07,39,9.40
2016,01,28,07,40,9.30
2016,01,28,07,41,9.30
2016,01,28,07,42,9.30
2016,01,28,07,43,9.30
2016,01,28,07,44,9.30
2016,01,28,07,45,9.30
2016,01,28,07,46,9.30
2016,01,28,07,47,9.30
2016,01,28,07,48,9.30
2016,01,28,07,49,9.30
2016,01,28,07,50,9.30
2016,01,28,07,51,9.30
2016,01,28,07,52,9.20
2016,01,28,07,53,9.20
2016,01,28,07,54,9.20
2016,01,28,07,55,9.20
2016,01,28,07,56,9.20
2016,01,28,07,57,9.20
2016,01,28,07,58,9.30
2016,01,28,07,59,9.20
2016,01,28,08,00,9.20
2016,01,28,08,01,9.20
2016,01,28,08,02,9.20
2016,01,28,08,03,9.30
2016,01,28,08,04,9.30
2016,01,28,08,05,9.20
2016,01,28,08,06,9.20
2016,01,28,08,07,9.30
2016,01,28,08,08,9.30
2016,01,28,08,09,9.20
2016,01,28,08,10,9.20
2016,01,28,08,11,9.20
2016,01,28,08,12,9.20
2016,01,28,08,13,9.20
2016,01,28,08,14,9.20
2016,01,28,08,15,9.20
2016,01,28,08,16,9.20
2016,01,28,08,17,9.20
2016,01,28,08,18,9.20
2016,01,28,08,19,9.20
2016,01,28,08,20,9.20
2016,01,28,08,21,9.20
2016,01,28,08,22,9.20
2016,01,28,08,23,9.20
2016,01,28,08,24,9.20
2016,01,28,08,25,9.20
2016,01,28,08,26,9.20
2016,01,28,08,27,9.20
2016,01,28,08,28,9.20
2016,01,28,08,29,9.20
2016,01,28,08,30,9.20
2016,01,28,08,31,9.20
2016,01,28,08,32,9.20
2016,01,28,08,33,9.20
2016,01,28,08,34,9.20
2016,01,28,08,35,9.20
2016,01,28,08,36,9.20
2016,01,28,08,37,9.20
2016,01,28,08,38,9.30
2016,01,28,08,39,9.30
2016,01,28,08,40,9.30
2016,01,28,08,41,9.30
2016,01,28,08,42,9.30
2016,01,28,08,43,9.30
2016,01,28,08,44,9.30
2016,01,28,08,45,9.30
2016,01,28,08,46,9.30
2016,01,28,08,47,9.30
2016,01,28,08,48,9.30
2016,01,28,08,49,9.30
2016,01,28,08,50,9.30
2016,01,28,08,51,9.30
2016,01,28,08,52,9.30
2016,01,28,08,53,9.30
2016,01,28,08,54,9.30
2016,01,28,08,55,9.40
2016,01,28,08,56,9.40
2016,01,28,08,57,9.40
2016,01,28,08,58,9.40
2016,01,28,08,59,9.40
2016,01,28,09,00,9.40
2016,01,28,09,01,9.40
2016,01,28,09,02,9.40
2016,01,28,09,03,9.40
2016,01,28,09,04,9.50
2016,01,28,09,05,9.50
2016,01,28,09,06,9.50
2016,01,28,09,07,9.50
2016,01,28,09,08,9.50
2016,01,28,09,09,9.50
2016,01,28,09,10,9.50
2016,01,28,09,11,9.50
2016,01,28,09,12,9.50
2016,01,28,09,13,9.50
2016,01,28,09,14,9.50
2016,01,28,09,15,9.50
2016,01,28,09,16,9.50
2016,01,28,09,17,9.50
2016,01,28,09,18,9.50
2016,01,28,09,19,9.50
2016,01,28,09,20,9.40
2016,01,28,09,21,9.40
2016,01,28,09,22,9.40
2016,01,28,09,23,9.40
2016,01,28,09,24,9.40
2016,01,28,09,25,9.40
2016,01,28,09,26,9.40
2016,01,28,09,27,9.40
2016,01,28,09,28,9.40
2016,01,28,09,29,9.40
2016,01,28,09,30,9.40
2016,01,28,09,31,9.40
2016,01,28,09,32,9.40
2016,01,28,09,33,9.40
2016,01,28,09,34,9.40
2016,01,28,09,35,9.40
2016,01,28,09,36,9.40
2016,01,28,09,37,9.40
2016,01,28,09,38,9.40
2016,01,28,09,39,9.40
2016,01,28,09,40,9.40
2016,01,28,09,41,9.40
2016,01,28,09,42,9.40
2016,01,28,09,43,9.50
2016,01,28,09,44,9.50
2016,01,28,09,45,9.50
2016,01,28,09,46,9.50
2016,01,28,09,47,9.50
2016,01,28,09,48,9.60
2016,01,28,09,49,9.60
2016,01,28,09,50,9.60
2016,01,28,09,51,9.60
2016,01,28,09,52,9.60
2016,01,28,09,53,9.60
2016,01,28,09,54,9.60
2016,01,28,09,55,9.60
2016,01,28,09,56,9.60
2016,01,28,09,57,9.70
2016,01,28,09,58,9.70
2016,01,28,09,59,9.70
2016,01,28,10,00,9.70
2016,01,28,10,01,9.70
2016,01,28,10,02,9.70
2016,01,28,10,03,9.70
2016,01,28,10,04,9.70
2016,01,28,10,05,9.70
2016,01,28,10,06,9.80
2016,01,28,10,07,9.80
2016,01,28,10,08,9.80
2016,01,28,10,09,9.80
2016,01,28,10,10,9.80
2016,01,28,10,11,9.80
2016,01,28,10,12,9.80
2016,01,28,10,13,9.80
2016,01,28,10,14,9.80
2016,01,28,10,15,9.80
2016,01,28,10,16,9.90
2016,01,28,10,17,9.90
2016,01,28,10,18,9.90
2016,01,28,10,19,9.90
2016,01,28,10,20,9.90
2016,01,28,10,21,9.90
2016,01,28,10,22,10.00
2016,01,28,10,23,10.00
2016,01,28,10,24,10.00
2016,01,28,10,25,10.00
2016,01,28,10,26,10.10
2016,01,28,10,27,10.10
2016,01,28,10,28,10.10
2016,01,28,10,29,10.10
2016,01,28,10,30,10.10
2016,01,28,10,31,10.20
2016,01,28,10,32,10.20
2016,01,28,10,33,10.20
2016,01,28,10,34,10.30
2016,01,28,10,35,10.30
2016,01,28,10,36,10.30
2016,01,28,10,37,10.30
2016,01,28,10,38,10.30
2016,01,28,10,39,10.30
2016,01,28,10,40,10.20
2016,01,28,10,41,10.20
2016,01,28,10,42,10.10
2016,01,28,10,43,10.00
2016,01,28,10,44,9.90
2016,01,28,10,45,9.80
2016,01,28,10,46,9.70
2016,01,28,10,47,9.60
2016,01,28,10,48,9.50
2016,01,28,10,49,9.30
2016,01,28,10,50,9.30
2016,01,28,10,51,9.20
2016,01,28,10,52,9.20
2016,01,28,10,53,9.10
2016,01,28,10,54,9.00
2016,01,28,10,55,9.00
2016,01,28,10,56,8.90
2016,01,28,10,57,8.90
2016,01,28,10,58,8.80
2016,01,28,10,59,8.80
2016,01,28,11,00,8.80
2016,01,28,11,01,8.80
2016,01,28,11,02,8.80
2016,01,28,11,03,8.80
2016,01,28,11,04,8.80
2016,01,28,11,05,8.90
2016,01,28,11,06,8.90
2016,01,28,11,07,9.00
2016,01,28,11,08,9.00
2016,01,28,11,09,9.10
2016,01,28,11,10,9.20
2016,01,28,11,11,9.20
2016,01,28,11,12,9.30
2016,01,28,11,13,9.30
2016,01,28,11,14,9.30
2016,01,28,11,15,9.30
2016,01,28,11,16,9.30
2016,01,28,11,17,9.30
2016,01,28,11,18,9.30
2016,01,28,11,19,9.30
2016,01,28,11,20,9.30
2016,01,28,11,21,9.30
2016,01,28,11,22,9.30
2016,01,28,11,23,9.30
2016,01,28,11,24,9.30
2016,01,28,11,25,9.30
2016,01,28,11,26,9.30
2016,01,28,11,27,9.30
2016,01,28,11,28,9.30
2016,01,28,11,29,9.30
2016,01,28,11,30,9.30
2016,01,28,11,31,9.30
2016,01,28,11,32,9.40
2016,01,28,11,33,9.30
2016,01,28,11,34,9.30
2016,01,28,11,35,9.30
2016,01,28,11,36,9.30
2016,01,28,11,37,9.30
2016,01,28,11,38,9.30
2016,01,28,11,39,9.30
2016,01,28,11,40,9.30
2016,01,28,11,41,9.30
2016,01,28,11,42,9.30
2016,01,28,11,43,9.40
2016,01,28,11,44,9.40
2016,01,28,11,45,9.40
2016,01,28,11,46,9.40
2016,01,28,11,47,9.40
2016,01,28,11,48,9.40
2016,01,28,11,49,9.50
2016,01,28,11,50,9.50
2016,01,28,11,51,9.60
2016,01,28,11,52,9.60
2016,01,28,11,53,9.60
2016,01,28,11,54,9.60
2016,01,28,11,55,9.70
2016,01,28,11,56,9.70
2016,01,28,11,57,9.70
2016,01,28,11,58,9.70
2016,01,28,11,59,9.70
2016,01,28,12,00,9.70
2016,01,28,12,01,9.70
2016,01,28,12,02,9.70
2016,01,28,12,03,9.70
2016,01,28,12,04,9.70
2016,01,28,12,05,9.70
2016,01,28,12,06,9.70
2016,01,28,12,07,9.70
2016,01,28,12,08,9.70
2016,01,28,12,09,9.70
2016,01,28,12,10,9.70
2016,01,28,12,11,9.70
2016,01,28,12,12,9.70
2016,01,28,12,13,9.80
2016,01,28,12,14,9.80
2016,01,28,12,15,9.80
2016,01,28,12,16,9.80
2016,01,28,12,17,9.80
2016,01,28,12,18,9.90
2016,01,28,12,19,9.90
2016,01,28,12,20,9.90
2016,01,28,12,21,9.90
2016,01,28,12,22,10.00
2016,01,28,12,23,10.00
2016,01,28,12,24,10.00
2016,01,28,12,25,10.10
2016,01,28,12,26,10.10
2016,01,28,12,27,10.10
2016,01,28,12,28,10.10
2016,01,28,12,29,10.10
2016,01,28,12,30,10.10
2016,01,28,12,31,10.10
2016,01,28,12,32,10.10
2016,01,28,12,33,10.20
2016,01,28,12,34,10.20
2016,01,28,12,35,10.20
2016,01,28,12,36,10.20
2016,01,28,12,37,10.20
2016,01,28,12,38,10.10
2016,01,28,12,39,10.10
2016,01,28,12,40,10.00
2016,01,28,12,41,9.90
2016,01,28,12,42,9.80
2016,01,28,12,43,9.70
2016,01,28,12,44,9.50
2016,01,28,12,45,9.50
2016,01,28,12,46,9.40
2016,01,28,12,47,9.30
2016,01,28,12,48,9.20
2016,01,28,12,49,9.10
2016,01,28,12,50,9.10
2016,01,28,12,51,9.00
2016,01,28,12,52,9.00
2016,01,28,12,53,8.90
2016,01,28,12,54,8.90
2016,01,28,12,55,8.90
2016,01,28,12,56,8.90
2016,01,28,12,57,8.90
2016,01,28,12,58,8.90
2016,01,28,12,59,8.90
2016,01,28,13,00,9.00
2016,01,28,13,01,9.00
2016,01,28,13,02,9.00
2016,01,28,13,03,9.00
2016,01,28,13,04,9.00
2016,01,28,13,05,9.00
2016,01,28,13,06,9.00
2016,01,28,13,07,9.00
2016,01,28,13,08,9.00
2016,01,28,13,09,9.00
2016,01,28,13,10,9.00
2016,01,28,13,11,9.10
2016,01,28,13,12,9.10
2016,01,28,13,13,9.10
2016,01,28,13,14,9.10
2016,01,28,13,15,9.00
2016,01,28,13,16,9.00
2016,01,28,13,17,9.10
2016,01,28,13,18,9.10
2016,01,28,13,19,9.10
2016,01,28,13,20,9.10
2016,01,28,13,21,9.10
2016,01,28,13,22,9.10
2016,01,28,13,23,9.10
2016,01,28,13,24,9.10
2016,01,28,13,25,9.10
2016,01,28,13,26,9.10
2016,01,28,13,27,9.10
2016,01,28,13,28,9.20
2016,01,28,13,29,9.20
2016,01,28,13,30,9.30
2016,01,28,13,31,9.30
2016,01,28,13,32,9.30
2016,01,28,13,33,9.40
2016,01,28,13,34,9.40
2016,01,28,13,35,9.40
2016,01,28,13,36,9.40
2016,01,28,13,37,9.50
2016,01,28,13,38,9.50
2016,01,28,13,39,9.60
2016,01,28,13,40,9.60
2016,01,28,13,41,9.60
2016,01,28,13,42,9.60
2016,01,28,13,43,9.60
2016,01,28,13,44,9.60
2016,01,28,13,45,9.60
2016,01,28,13,46,9.60
2016,01,28,13,47,9.60
2016,01,28,13,48,9.60
2016,01,28,13,49,9.60
2016,01,28,13,50,9.50
2016,01,28,13,51,9.50
2016,01,28,13,52,9.50
2016,01,28,13,53,9.50
2016,01,28,13,54,9.50
2016,01,28,13,55,9.50
2016,01,28,13,56,9.40
2016,01,28,13,57,9.40
2016,01,28,13,58,9.40
2016,01,28,13,59,9.40
2016,01,28,14,00,9.40
2016,01,28,14,01,9.40
2016,01,28,14,02,9.40
2016,01,28,14,03,9.40
2016,01,28,14,04,9.40
2016,01,28,14,05,9.40
2016,01,28,14,06,9.40
2016,01,28,14,07,9.40
2016,01,28,14,08,9.40
2016,01,28,14,09,9.40
2016,01,28,14,10,9.40
2016,01,28,14,11,9.40
2016,01,28,14,12,9.40
2016,01,28,14,13,9.40
2016,01,28,14,14,9.40
2016,01,28,14,15,9.40
2016,01,28,14,16,9.40
2016,01,28,14,17,9.40
2016,01,28,14,18,9.40
2016,01,28,14,19,9.40
2016,01,28,14,20,9.40
2016,01,28,14,21,9.40
2016,01,28,14,22,9.40
2016,01,28,14,23,9.40
2016,01,28,14,24,9.40
2016,01,28,14,25,9.40
2016,01,28,14,26,9.40
2016,01,28,14,27,9.40
2016,01,28,14,28,9.30
2016,01,28,14,29,9.30
2016,01,28,14,30,9.30
2016,01,28,14,31,9.30
2016,01,28,14,32,9.20
2016,01,28,14,33,9.20
2016,01,28,14,34,9.20
2016,01,28,14,35,9.20
2016,01,28,14,36,9.20
2016,01,28,14,37,9.20
2016,01,28,14,38,9.20
2016,01,28,14,39,9.10
2016,01,28,14,40,9.10
2016,01,28,14,41,9.10
2016,01,28,14,42,9.10
2016,01,28,14,43,9.10
2016,01,28,14,44,9.10
2016,01,28,14,45,9.10
2016,01,28,14,46,9.10
2016,01,28,14,47,9.10
2016,01,28,14,48,9.10
2016,01,28,14,49,9.10
2016,01,28,14,50,9.10
2016,01,28,14,51,9.10
2016,01,28,14,52,9.10
2016,01,28,14,53,9.10
2016,01,28,14,54,9.00
2016,01,28,14,55,9.00
2016,01,28,14,56,9.00
2016,01,28,14,57,8.90
2016,01,28,14,58,9.00
2016,01,28,14,59,8.90
2016,01,28,15,00,8.90
2016,01,28,15,01,8.90
2016,01,28,15,02,8.90
2016,01,28,15,03,8.90
2016,01,28,15,04,8.90
2016,01,28,15,05,9.00
2016,01,28,15,06,9.00
2016,01,28,15,07,9.00
2016,01,28,15,08,9.00
2016,01,28,15,09,9.00
2016,01,28,15,10,9.00
2016,01,28,15,11,9.00
2016,01,28,15,12,9.00
2016,01,28,15,13,9.00
2016,01,28,15,14,9.00
2016,01,28,15,15,9.00
2016,01,28,15,16,9.00
2016,01,28,15,17,9.00
2016,01,28,15,18,9.00
2016,01,28,15,19,9.10
2016,01,28,15,20,9.10
2016,01,28,15,21,9.10
2016,01,28,15,22,9.00
2016,01,28,15,23,9.00
2016,01,28,15,24,9.00
2016,01,28,15,25,9.00
2016,01,28,15,26,9.00
2016,01,28,15,27,8.90
2016,01,28,15,28,9.00
2016,01,28,15,29,9.00
2016,01,28,15,30,8.90
2016,01,28,15,31,8.90
2016,01,28,15,32,8.90
2016,01,28,15,33,8.90
2016,01,28,15,34,8.90
2016,01,28,15,35,8.90
2016,01,28,15,36,8.90
2016,01,28,15,37,8.90
2016,01,28,15,38,8.80
2016,01,28,15,39,8.80
2016,01,28,15,40,8.80
2016,01,28,15,41,8.80
2016,01,28,15,42,8.80
2016,01,28,15,43,8.80
2016,01,28,15,44,8.80
2016,01,28,15,45,8.80
2016,01,28,15,46,8.80
2016,01,28,15,47,8.80
2016,01,28,15,48,8.80
2016,01,28,15,49,8.80
2016,01,28,15,50,8.80
2016,01,28,15,51,8.90
2016,01,28,15,52,8.90
2016,01,28,15,53,8.90
2016,01,28,15,54,8.90
2016,01,28,15,55,9.00
2016,01,28,15,56,9.00
2016,01,28,15,57,9.00
2016,01,28,15,58,9.10
2016,01,28,15,59,9.10
2016,01,28,16,00,9.10
2016,01,28,16,01,9.10
2016,01,28,16,02,9.10
2016,01,28,16,03,9.00
2016,01,28,16,04,9.00
2016,01,28,16,05,9.00
2016,01,28,16,06,8.90
2016,01,28,16,07,8.90
2016,01,28,16,08,8.90
2016,01,28,16,09,8.90
2016,01,28,16,10,8.90
2016,01,28,16,11,8.90
2016,01,28,16,12,8.90
2016,01,28,16,13,8.80
2016,01,28,16,14,8.80
2016,01,28,16,15,8.80
2016,01,28,16,16,8.80
2016,01,28,16,17,8.80
2016,01,28,16,18,8.80
2016,01,28,16,19,8.70
2016,01,28,16,20,8.70
2016,01,28,16,21,8.70
2016,01,28,16,22,8.70
2016,01,28,16,23,8.70
2016,01,28,16,24,8.70
2016,01,28,16,25,8.70
2016,01,28,16,26,8.70
2016,01,28,16,27,8.70
2016,01,28,16,28,8.60
2016,01,28,16,29,8.60
2016,01,28,16,30,8.60
2016,01,28,16,31,8.60
2016,01,28,16,32,8.60
2016,01,28,16,33,8.60
2016,01,28,16,34,8.60
2016,01,28,16,35,8.60
2016,01,28,16,36,8.60
2016,01,28,16,37,8.50
2016,01,28,16,38,8.50
2016,01,28,16,39,8.50
2016,01,28,16,40,8.50
2016,01,28,16,41,8.50
2016,01,28,16,42,8.50
2016,01,28,16,43,8.50
2016,01,28,16,44,8.50
2016,01,28,16,45,8.50
2016,01,28,16,46,8.50
2016,01,28,16,47,8.50
2016,01,28,16,48,8.50
2016,01,28,16,49,8.50
2016,01,28,16,50,8.50
2016,01,28,16,51,8.50
2016,01,28,16,52,8.50
2016,01,28,16,53,8.50
2016,01,28,16,54,8.50
2016,01,28,16,55,8.40
2016,01,28,16,56,8.40
2016,01,28,16,57,8.40
2016,01,28,16,58,8.40
2016,01,28,16,59,8.30
2016,01,28,17,00,8.30
2016,01,28,17,01,8.30
2016,01,28,17,02,8.30
2016,01,28,17,03,8.30
2016,01,28,17,04,8.30
2016,01,28,17,05,8.30
2016,01,28,17,06,8.20
2016,01,28,17,07,8.20
2016,01,28,17,08,8.20
2016,01,28,17,09,8.20
2016,01,28,17,10,8.20
2016,01,28,17,11,8.20
2016,01,28,17,12,8.10
2016,01,28,17,13,8.10
2016,01,28,17,14,8.10
2016,01,28,17,15,8.10
2016,01,28,17,16,8.10
2016,01,28,17,17,8.10
2016,01,28,17,18,8.10
2016,01,28,17,19,8.10
2016,01,28,17,20,8.10
2016,01,28,17,21,8.20
2016,01,28,17,22,8.20
2016,01,28,17,23,8.20
2016,01,28,17,24,8.20
2016,01,28,17,25,8.20
2016,01,28,17,26,8.20
2016,01,28,17,27,8.20
2016,01,28,17,28,8.10
2016,01,28,17,29,8.10
2016,01,28,17,30,8.10
2016,01,28,17,31,8.10
2016,01,28,17,32,8.10
2016,01,28,17,33,8.10
2016,01,28,17,34,8.10
2016,01,28,17,35,8.10
2016,01,28,17,36,8.10
2016,01,28,17,37,8.10
2016,01,28,17,38,8.00
2016,01,28,17,39,8.00
2016,01,28,17,40,8.00
2016,01,28,17,41,8.00
2016,01,28,17,42,8.00
2016,01,28,17,43,7.90
2016,01,28,17,44,7.90
2016,01,28,17,45,7.90
2016,01,28,17,46,7.80
2016,01,28,17,47,7.80
2016,01,28,17,48,7.80
2016,01,28,17,49,7.80
2016,01,28,17,50,7.80
2016,01,28,17,51,7.70
2016,01,28,17,52,7.70
2016,01,28,17,53,7.70
2016,01,28,17,54,7.70
2016,01,28,17,55,7.70
2016,01,28,17,56,7.70
2016,01,28,17,57,7.70
2016,01,28,17,58,7.70
2016,01,28,17,59,7.70
2016,01,28,18,00,7.70
2016,01,28,18,01,7.70
2016,01,28,18,02,7.60
2016,01,28,18,03,7.60
2016,01,28,18,04,7.60
2016,01,28,18,05,7.60
2016,01,28,18,06,7.60
2016,01,28,18,07,7.60
2016,01,28,18,08,7.60
2016,01,28,18,09,7.50
2016,01,28,18,10,7.50
2016,01,28,18,11,7.50
2016,01,28,18,12,7.50
2016,01,28,18,13,7.40
2016,01,28,18,14,7.40
2016,01,28,18,15,7.40
2016,01,28,18,16,7.40
2016,01,28,18,17,7.40
2016,01,28,18,18,7.40
2016,01,28,18,19,7.40
2016,01,28,18,20,7.40
2016,01,28,18,21,7.40
2016,01,28,18,22,7.30
2016,01,28,18,23,7.30
2016,01,28,18,24,7.30
2016,01,28,18,25,7.30
2016,01,28,18,26,7.30
2016,01,28,18,27,7.30
2016,01,28,18,28,7.30
2016,01,28,18,29,7.30
2016,01,28,18,30,7.20
2016,01,28,18,31,7.20
2016,01,28,18,32,7.20
2016,01,28,18,33,7.20
2016,01,28,18,34,7.30
2016,01,28,18,35,7.30
2016,01,28,18,36,7.30
2016,01,28,18,37,7.30
2016,01,28,18,38,7.40
2016,01,28,18,39,7.40
2016,01,28,18,40,7.40
2016,01,28,18,41,7.40
2016,01,28,18,42,7.40
2016,01,28,18,43,7.40
2016,01,28,18,44,7.40
2016,01,28,18,45,7.40
2016,01,28,18,46,7.40
2016,01,28,18,47,7.30
2016,01,28,18,48,7.30
2016,01,28,18,49,7.30
2016,01,28,18,50,7.30
2016,01,28,18,51,7.30
2016,01,28,18,52,7.30
2016,01,28,18,53,7.30
2016,01,28,18,54,7.20
2016,01,28,18,55,7.20
2016,01,28,18,56,7.20
2016,01,28,18,57,7.20
2016,01,28,18,58,7.20
2016,01,28,18,59,7.20
2016,01,28,19,00,7.20
2016,01,28,19,01,7.20
2016,01,28,19,02,7.10
2016,01,28,19,03,7.10
2016,01,28,19,04,7.10
2016,01,28,19,05,7.10
2016,01,28,19,06,7.10
2016,01,28,19,07,7.10
2016,01,28,19,08,7.10
2016,01,28,19,09,7.10
2016,01,28,19,10,7.10
2016,01,28,19,11,7.10
2016,01,28,19,12,7.10
2016,01,28,19,13,7.10
2016,01,28,19,14,7.10
2016,01,28,19,15,7.10
2016,01,28,19,16,7.10
2016,01,28,19,17,7.10
2016,01,28,19,18,7.10
2016,01,28,19,19,7.10
2016,01,28,19,20,7.10
2016,01,28,19,21,7.10
2016,01,28,19,22,7.10
2016,01,28,19,23,7.10
2016,01,28,19,24,7.10
2016,01,28,19,25,7.20
2016,01,28,19,26,7.20
2016,01,28,19,27,7.20
2016,01,28,19,28,7.20
2016,01,28,19,29,7.20
2016,01,28,19,30,7.20
2016,01,28,19,31,7.20
2016,01,28,19,32,7.20
2016,01,28,19,33,7.20
2016,01,28,19,34,7.20
2016,01,28,19,35,7.20
2016,01,28,19,36,7.20
2016,01,28,19,37,7.20
2016,01,28,19,38,7.20
2016,01,28,19,39,7.20
2016,01,28,19,40,7.30
2016,01,28,19,41,7.30
2016,01,28,19,42,7.30
2016,01,28,19,43,7.30
2016,01,28,19,44,7.40
2016,01,28,19,45,7.40
2016,01,28,19,46,7.40
2016,01,28,19,47,7.50
2016,01,28,19,48,7.50
2016,01,28,19,49,7.60
2016,01,28,19,50,7.60
2016,01,28,19,51,7.60
2016,01,28,19,52,7.60
2016,01,28,19,53,7.60
2016,01,28,19,54,7.60
2016,01,28,19,55,7.60
2016,01,28,19,56,7.60
2016,01,28,19,57,7.70
2016,01,28,19,58,7.70
2016,01,28,19,59,7.70
2016,01,28,20,00,7.70
2016,01,28,20,01,7.70
2016,01,28,20,02,7.70
2016,01,28,20,03,7.70
2016,01,28,20,04,7.70
2016,01,28,20,05,7.70
2016,01,28,20,06,7.70
2016,01,28,20,07,7.70
2016,01,28,20,08,7.70
2016,01,28,20,09,7.80
2016,01,28,20,10,7.70
2016,01,28,20,11,7.70
2016,01,28,20,12,7.70
2016,01,28,20,13,7.70
2016,01,28,20,14,7.70
2016,01,28,20,15,7.70
2016,01,28,20,16,7.70
2016,01,28,20,17,7.70
2016,01,28,20,18,7.70
2016,01,28,20,19,7.70
2016,01,28,20,20,7.70
2016,01,28,20,21,7.70
2016,01,28,20,22,7.70
2016,01,28,20,23,7.70
2016,01,28,20,24,7.70
2016,01,28,20,25,7.70
2016,01,28,20,26,7.70
2016,01,28,20,27,7.70
2016,01,28,20,28,7.70
2016,01,28,20,29,7.60
2016,01,28,20,30,7.60
2016,01,28,20,31,7.60
2016,01,28,20,32,7.60
2016,01,28,20,33,7.60
2016,01,28,20,34,7.60
2016,01,28,20,35,7.60
2016,01,28,20,36,7.60
2016,01,28,20,37,7.60
2016,01,28,20,38,7.60
2016,01,28,20,39,7.60
2016,01,28,20,40,7.60
2016,01,28,20,41,7.60
2016,01,28,20,42,7.60
2016,01,28,20,43,7.60
2016,01,28,20,44,7.60
2016,01,28,20,45,7.60
2016,01,28,20,46,7.60
2016,01,28,20,47,7.60
2016,01,28,20,48,7.60
2016,01,28,20,49,7.60
2016,01,28,20,50,7.60
2016,01,28,20,51,7.60
2016,01,28,20,52,7.60
2016,01,28,20,53,7.60
2016,01,28,20,54,7.70
2016,01,28,20,55,7.70
2016,01,28,20,56,7.70
2016,01,28,20,57,7.80
2016,01,28,20,58,7.80
2016,01,28,20,59,7.70
2016,01,28,21,00,7.70
2016,01,28,21,01,7.60
2016,01,28,21,02,7.60
2016,01,28,21,03,7.60
2016,01,28,21,04,7.50
2016,01,28,21,05,7.40
2016,01,28,21,06,7.30
2016,01,28,21,07,7.30
2016,01,28,21,08,7.20
2016,01,28,21,09,7.20
2016,01,28,21,10,7.20
2016,01,28,21,11,7.10
2016,01,28,21,12,7.10
2016,01,28,21,13,7.10
2016,01,28,21,14,7.10
2016,01,28,21,15,7.00
2016,01,28,21,16,7.00
2016,01,28,21,17,6.90
2016,01,28,21,18,6.90
2016,01,28,21,19,6.90
2016,01,28,21,20,6.90
2016,01,28,21,21,6.80
2016,01,28,21,22,6.80
2016,01,28,21,23,6.80
2016,01,28,21,24,6.70
2016,01,28,21,25,6.70
2016,01,28,21,26,6.70
2016,01,28,21,27,6.70
2016,01,28,21,28,6.70
2016,01,28,21,29,6.70
2016,01,28,21,30,6.70
2016,01,28,21,31,6.60
2016,01,28,21,32,6.60
2016,01,28,21,33,6.60
2016,01,28,21,34,6.60
2016,01,28,21,35,6.60
2016,01,28,21,36,6.60
2016,01,28,21,37,6.60
2016,01,28,21,38,6.60
2016,01,28,21,39,6.60
2016,01,28,21,40,6.60
2016,01,28,21,41,6.60
2016,01,28,21,42,6.60
2016,01,28,21,43,6.60
2016,01,28,21,44,6.60
2016,01,28,21,45,6.60
2016,01,28,21,46,6.60
2016,01,28,21,47,6.60
2016,01,28,21,48,6.60
2016,01,28,21,49,6.60
2016,01,28,21,50,6.60
2016,01,28,21,51,6.60
2016,01,28,21,52,6.60
2016,01,28,21,53,6.60
2016,01,28,21,54,6.60
2016,01,28,21,55,6.60
2016,01,28,21,56,6.60
2016,01,28,21,57,6.60
2016,01,28,21,58,6.60
2016,01,28,21,59,6.60
2016,01,28,22,00,6.60
2016,01,28,22,01,6.60
2016,01,28,22,02,6.60
2016,01,28,22,03,6.50
2016,01,28,22,04,6.50
2016,01,28,22,05,6.50
2016,01,28,22,06,6.50
2016,01,28,22,07,6.50
2016,01,28,22,08,6.50
2016,01,28,22,09,6.50
2016,01,28,22,10,6.50
2016,01,28,22,11,6.50
2016,01,28,22,12,6.50
2016,01,28,22,13,6.50
2016,01,28,22,14,6.50
2016,01,28,22,15,6.50
2016,01,28,22,16,6.50
2016,01,28,22,17,6.50
2016,01,28,22,18,6.50
2016,01,28,22,19,6.50
2016,01,28,22,20,6.50
2016,01,28,22,21,6.50
2016,01,28,22,22,6.50
2016,01,28,22,23,6.50
2016,01,28,22,24,6.50